Volver al catálogo

SNAPPY

ActivoCienciaSSO
NORAD 69009·PAYLOAD·🇺🇸 United States
Este nombre de satélite aún no ha sido confirmado por fuentes oficiales.

Lanzado May 3, 2026 desde Vandenberg Space Force Base

Loading…

Próximos Pases (próximas 24 horas)

TLE

ActualizadoSource: Space-Track

Época: Sep 14, 2026, 04:22 UTC

1 69009U 26100AF  26257.18225372  .00008201  00000-0  36379-3 0  9997
2 69009  97.3908 153.3848 0005927  47.6808 312.4929 15.21823764 20337

Sigue SNAPPY en tiempo real con AllMySat

Download on the App Store